TimeCDT,TemperatureF,Dew PointF,Humidity,Sea Level PressureIn,VisibilityMPH,Wind Direction,Wind SpeedMPH,Gust SpeedMPH,PrecipitationIn,Events,Conditions,WindDirDegrees,DateUTC
12:12 AM,53.6,50.0,88,29.95,10.0,Calm,Calm,-,N/A,,Clear,0,2013-08-01 05:12:00
12:32 AM,53.6,48.2,82,29.95,10.0,Calm,Calm,-,N/A,,Clear,0,2013-08-01 05:32:00
12:52 AM,53.6,48.2,82,29.94,10.0,Calm,Calm,-,N/A,,Clear,0,2013-08-01 05:52:00
1:13 AM,51.8,48.2,88,29.94,10.0,Calm,Calm,-,N/A,,Clear,0,2013-08-01 06:13:00
1:32 AM,51.8,46.4,82,29.94,10.0,Calm,Calm,-,N/A,,Clear,0,2013-08-01 06:32:00
1:52 AM,50.0,46.4,87,29.94,10.0,Calm,Calm,-,N/A,,Scattered Clouds,0,2013-08-01 06:52:00
2:13 AM,50.0,46.4,87,29.94,10.0,Calm,Calm,-,N/A,,Scattered Clouds,0,2013-08-01 07:13:00
2:32 AM,50.0,46.4,87,29.94,10.0,Calm,Calm,-,N/A,,Clear,0,2013-08-01 07:32:00
2:52 AM,51.8,50.0,94,29.94,10.0,Calm,Calm,-,N/A,,Mostly Cloudy,0,2013-08-01 07:52:00
3:12 AM,53.6,51.8,94,29.94,10.0,Calm,Calm,-,N/A,,Overcast,0,2013-08-01 08:12:00
3:32 AM,53.6,50.0,88,29.94,10.0,Calm,Calm,-,N/A,,Overcast,0,2013-08-01 08:32:00
3:53 AM,53.6,51.8,94,29.95,10.0,Calm,Calm,-,N/A,,Overcast,0,2013-08-01 08:53:00
4:13 AM,53.6,51.8,94,29.95,10.0,Calm,Calm,-,N/A,,Mostly Cloudy,0,2013-08-01 09:13:00
4:32 AM,53.6,50.0,88,29.95,10.0,WSW,3.5,-,N/A,,Scattered Clouds,250,2013-08-01 09:32:00
4:52 AM,51.8,48.2,88,29.95,10.0,Calm,Calm,-,N/A,,Scattered Clouds,0,2013-08-01 09:52:00
5:13 AM,-9999,-9999,N/A,29.95,10.0,Calm,Calm,-,N/A,,Scattered Clouds,0,2013-08-01 10:13:00
5:32 AM,51.8,48.2,88,29.96,10.0,Calm,Calm,-,N/A,,Scattered Clouds,0,2013-08-01 10:32:00
5:52 AM,48.2,46.4,93,29.96,10.0,Calm,Calm,-,N/A,,Clear,0,2013-08-01 10:52:00
6:12 AM,48.2,46.4,93,29.97,10.0,Calm,Calm,-,N/A,,Clear,0,2013-08-01 11:12:00
6:32 AM,46.4,44.6,93,29.97,10.0,Calm,Calm,-,N/A,,Clear,0,2013-08-01 11:32:00
6:52 AM,46.4,46.4,100,29.97,10.0,Calm,Calm,-,N/A,,Clear,0,2013-08-01 11:52:00
7:12 AM,48.2,46.4,93,29.97,10.0,Calm,Calm,-,N/A,,Clear,0,2013-08-01 12:12:00
7:32 AM,53.6,51.8,94,29.97,10.0,Calm,Calm,-,N/A,,Clear,0,2013-08-01 12:32:00
7:52 AM,55.4,53.6,94,29.97,10.0,Calm,Calm,-,N/A,,Clear,0,2013-08-01 12:52:00
8:13 AM,55.4,55.4,100,29.97,10.0,Calm,Calm,-,N/A,,Clear,0,2013-08-01 13:13:00
8:32 AM,60.8,57.2,88,29.97,10.0,Calm,Calm,-,N/A,,Clear,0,2013-08-01 13:32:00
8:52 AM,62.6,60.8,94,29.96,10.0,Calm,Calm,-,N/A,,Clear,0,2013-08-01 13:52:00
9:12 AM,64.4,59.0,83,29.97,10.0,NNW,3.5,-,N/A,,Clear,330,2013-08-01 14:12:00
9:32 AM,66.2,59.0,78,29.96,10.0,Calm,Calm,-,N/A,,Clear,0,2013-08-01 14:32:00
9:52 AM,66.2,59.0,78,29.96,10.0,Calm,Calm,-,N/A,,Clear,0,2013-08-01 14:52:00
10:12 AM,68.0,55.4,64,29.96,10.0,West,3.5,-,N/A,,Clear,280,2013-08-01 15:12:00
10:33 AM,68.0,55.4,64,29.95,10.0,NNW,6.9,-,N/A,,Scattered Clouds,340,2013-08-01 15:33:00
10:52 AM,69.8,55.4,60,29.95,10.0,Calm,Calm,-,N/A,,Scattered Clouds,0,2013-08-01 15:52:00
11:12 AM,69.8,53.6,56,29.95,10.0,North,6.9,-,N/A,,Scattered Clouds,350,2013-08-01 16:12:00
11:33 AM,69.8,53.6,56,29.95,10.0,West,4.6,-,N/A,,Scattered Clouds,260,2013-08-01 16:33:00
11:52 AM,69.8,53.6,56,29.95,10.0,NNW,5.8,-,N/A,,Mostly Cloudy,330,2013-08-01 16:52:00
12:13 PM,71.6,51.8,50,29.95,10.0,NNW,5.8,-,N/A,,Scattered Clouds,330,2013-08-01 17:13:00
12:32 PM,69.8,51.8,53,29.94,10.0,West,5.8,-,N/A,,Mostly Cloudy,270,2013-08-01 17:32:00
12:52 PM,68.0,51.8,56,29.94,10.0,Calm,Calm,-,N/A,,Overcast,0,2013-08-01 17:52:00
1:12 PM,66.2,51.8,60,29.94,10.0,WSW,4.6,-,N/A,,Overcast,250,2013-08-01 18:12:00
1:32 PM,66.2,53.6,64,29.93,10.0,Calm,Calm,-,N/A,,Overcast,0,2013-08-01 18:32:00
1:52 PM,68.0,55.4,64,29.93,10.0,Calm,Calm,-,N/A,,Mostly Cloudy,0,2013-08-01 18:52:00
2:12 PM,66.2,53.6,64,29.95,4.0,SW,8.1,-,0.02,Rain,Heavy Rain,220,2013-08-01 19:12:00
2:33 PM,59.0,55.4,88,29.93,10.0,Calm,Calm,-,0.05,Rain,Light Rain,0,2013-08-01 19:33:00
2:52 PM,60.8,55.4,82,29.93,7.0,Calm,Calm,-,0.05,Rain,Rain,0,2013-08-01 19:52:00
3:12 PM,62.6,59.0,88,29.92,10.0,Calm,Calm,-,0.01,Rain,Light Rain,0,2013-08-01 20:12:00
3:33 PM,66.2,62.6,88,29.91,10.0,Calm,Calm,-,0.01,,Scattered Clouds,0,2013-08-01 20:33:00
3:52 PM,66.2,62.6,88,29.91,10.0,Calm,Calm,-,0.01,,Scattered Clouds,0,2013-08-01 20:52:00
4:12 PM,69.8,62.6,78,29.90,10.0,Calm,Calm,-,N/A,,Scattered Clouds,0,2013-08-01 21:12:00
4:32 PM,71.6,60.8,69,29.89,10.0,Calm,Calm,-,N/A,,Clear,0,2013-08-01 21:32:00
4:52 PM,71.6,66.2,83,29.88,10.0,Calm,Calm,-,N/A,,Clear,0,2013-08-01 21:52:00
5:12 PM,73.4,66.2,78,29.88,10.0,Calm,Calm,-,N/A,,Scattered Clouds,0,2013-08-01 22:12:00
5:32 PM,73.4,64.4,73,29.88,10.0,Calm,Calm,-,N/A,,Scattered Clouds,0,2013-08-01 22:32:00
5:52 PM,69.8,62.6,78,29.88,10.0,NNW,5.8,-,N/A,Thunderstorm,Mostly Cloudy,340,2013-08-01 22:52:00
6:12 PM,71.6,62.6,73,-9999,10.0,NNE,5.8,-,N/A,,Scattered Clouds,20,2013-08-01 23:12:00
6:32 PM,69.8,60.8,73,29.87,10.0,Calm,Calm,-,N/A,,Mostly Cloudy,0,2013-08-01 23:32:00
6:53 PM,66.2,60.8,83,29.86,10.0,Calm,Calm,-,N/A,,Unknown,0,2013-08-01 23:53:00
7:13 PM,66.2,57.2,73,29.86,10.0,Calm,Calm,-,N/A,Thunderstorm,Thunderstorm,0,2013-08-02 00:13:00
7:33 PM,64.4,57.2,77,29.86,10.0,North,4.6,-,N/A,Rain-Thunderstorm,Light Thunderstorms and Rain,360,2013-08-02 00:33:00
7:52 PM,62.6,55.4,77,29.86,10.0,Calm,Calm,-,N/A,Thunderstorm,Mostly Cloudy,0,2013-08-02 00:52:00
8:13 PM,62.6,55.4,77,29.86,10.0,Calm,Calm,-,N/A,Thunderstorm,Scattered Clouds,0,2013-08-02 01:13:00
8:32 PM,59.0,53.6,82,29.86,10.0,Calm,Calm,-,N/A,,Scattered Clouds,0,2013-08-02 01:32:00
8:52 PM,57.2,53.6,88,29.87,10.0,Calm,Calm,-,N/A,,Mostly Cloudy,0,2013-08-02 01:52:00
9:12 PM,57.2,55.4,94,29.89,10.0,North,10.4,16.1,N/A,Thunderstorm,Thunderstorm,10,2013-08-02 02:12:00
9:32 PM,57.2,51.8,82,29.89,10.0,NE,3.5,-,N/A,Thunderstorm,Unknown,50,2013-08-02 02:32:00
9:52 PM,53.6,48.2,82,29.89,10.0,Calm,Calm,-,N/A,Thunderstorm,Scattered Clouds,0,2013-08-02 02:52:00
10:12 PM,53.6,51.8,94,29.90,10.0,Calm,Calm,-,N/A,,Scattered Clouds,0,2013-08-02 03:12:00
10:32 PM,53.6,51.8,94,29.90,10.0,Calm,Calm,-,N/A,,Overcast,0,2013-08-02 03:32:00
10:52 PM,53.6,51.8,94,29.89,10.0,Calm,Calm,-,N/A,,Mostly Cloudy,0,2013-08-02 03:52:00
11:12 PM,53.6,51.8,94,29.87,10.0,Calm,Calm,-,N/A,,Light Drizzle,0,2013-08-02 04:12:00
11:32 PM,53.6,50.0,88,29.87,10.0,Calm,Calm,-,N/A,,Clear,0,2013-08-02 04:32:00
11:52 PM,51.8,48.2,88,29.87,10.0,Calm,Calm,-,N/A,,Clear,0,2013-08-02 04:52:00